Weather History for KMTH - May, 2013

Change the Weather History Date:

Sunday, May 19, 2013

  Actual Average Record
Temperature  
Mean Temperature 86 °F 82 °F  
Max Temperature 90 °F 87 °F 93 °F (2008)
Min Temperature 81 °F 77 °F 71 °F (1998)
Degree Days  
Heating Degree Days 0 0  
Month to date heating degree days 0 0  
Since 1 July heating degree days 36 81  
Cooling Degree Days 21 17  
Month to date cooling degree days 317 290  
Year to date cooling degree days 1615 1326  
Growing Degree Days 34 (Base 50)    
Moisture  
Dew Point 69 °F    
Average Humidity 60    
Maximum Humidity 69    
Minimum Humidity 50    
Precipitation  
Precipitation 0.00 in 0.09 in 1.06 in (2002)
Month to date precipitation 3.85 2.00  
Year to date precipitation 11.74 10.59  
Snow  
Snow 0.00 in - - ()
Month to date snowfall 0.0  
Since 1 July snowfall 0.0  
Snow Depth 0.00 in    
Sea Level Pressure  
Sea Level Pressure 30.04 in    
Wind  
Wind Speed 7 mph (ESE)    
Max Wind Speed 13 mph    
Max Gust Speed 17 mph    
Visibility 10 miles    
Events      
T = Trace of Precipitation, MM = Missing Value Source: NWS Daily Summary

Daily Weather History Graph

Daily Weather History Graph

Search for Another Location

Airport or City:

Trip Planner

Search our weather history database for the weather conditions in past years. The results will help you decide how hot, cold, wet, or windy it might be!

Date:

Astronomy

May. 19, 2013 Rise Set
Actual Time 6:38 AM EDT 8:03 PM EDT
Civil Twilight 6:13 AM EDT 8:28 PM EDT
Nautical Twilight 5:43 AM EDT 8:57 PM EDT
Astronomical Twilight 5:13 AM EDT 9:28 PM EDT
Moon 2:40 PM EDT (5/19) 2:23 AM EDT (5/19)
Length of Visible Light 14h 14m
Length of Day
13h 24m
Waxing Gibbous, 65% of the Moon is Illuminated
May 19
Waxing Gibbous
May 25
Full
May 31
Last Quarter
Jun 8
New
Jun 16
First Quarter

Hourly Weather History & Observations

Time (EDT) Temp. Heat Index Dew Point Humidity Pressure Visibility Wind Dir Wind Speed Gust Speed Precip Events Conditions
12:53 AM 82.0 °F 85.5 °F 69.1 °F 65% 30.06 in 10.0 mi East 6.9 mph - N/A   Clear
1:53 AM 81.0 °F 84.1 °F 69.1 °F 67% 30.05 in 10.0 mi East 5.8 mph - N/A   Partly Cloudy
2:53 AM 81.0 °F 84.1 °F 69.1 °F 67% 30.03 in 10.0 mi ESE 6.9 mph - N/A   Partly Cloudy
3:53 AM 81.0 °F 84.1 °F 69.1 °F 67% 30.02 in 10.0 mi ESE 5.8 mph - N/A   Scattered Clouds
4:53 AM 81.0 °F 84.1 °F 69.1 °F 67% 30.02 in 10.0 mi East 5.8 mph - N/A   Partly Cloudy
5:53 AM 81.0 °F 84.1 °F 69.1 °F 67% 30.03 in 10.0 mi East 3.5 mph - N/A   Partly Cloudy
6:53 AM 81.0 °F 84.1 °F 69.1 °F 67% 30.05 in 10.0 mi Variable 5.8 mph - N/A   Clear
8:53 AM 84.9 °F 89.4 °F 70.0 °F 61% 30.07 in 10.0 mi Variable 5.8 mph - N/A   Clear
9:53 AM 86.0 °F 90.1 °F 69.1 °F 57% 30.09 in 10.0 mi Variable 5.8 mph - N/A   Partly Cloudy
10:53 AM 88.0 °F 92.9 °F 70.0 °F 55% 30.09 in 10.0 mi ESE 6.9 mph - N/A   Partly Cloudy
11:53 AM 88.0 °F 92.1 °F 69.1 °F 53% 30.09 in 10.0 mi ESE 8.1 mph - N/A   Partly Cloudy
12:53 PM 88.0 °F 92.1 °F 69.1 °F 53% 30.07 in 10.0 mi ESE 9.2 mph 16.1 mph N/A   Partly Cloudy
1:53 PM 88.0 °F 92.1 °F 69.1 °F 53% 30.06 in 10.0 mi East 9.2 mph - N/A   Clear
4:53 PM 87.1 °F 90.6 °F 68.0 °F 53% 30.00 in 10.0 mi ESE 9.2 mph - N/A   Clear
5:53 PM 86.0 °F 88.8 °F 66.9 °F 53% 29.99 in 10.0 mi East 9.2 mph - N/A   Clear
6:53 PM 84.9 °F 87.6 °F 66.9 °F 55% 29.99 in 10.0 mi East 9.2 mph - N/A   Clear
7:53 PM 82.9 °F 85.4 °F 66.9 °F 58% 30.01 in 10.0 mi East 8.1 mph - N/A   Clear
8:53 PM 82.9 °F 85.8 °F 68.0 °F 60% 30.03 in 10.0 mi East 8.1 mph - N/A   Clear
9:53 PM 82.0 °F 84.5 °F 66.9 °F 60% 30.05 in 10.0 mi East 6.9 mph - N/A   Clear
10:53 PM 82.0 °F 84.9 °F 68.0 °F 62% 30.06 in 10.0 mi East 5.8 mph - N/A   Scattered Clouds